Location: NovaLab Observatory
(42.8167°N, 71.2500°W)
Time: 19:16:51
(UTC-05:00)

Daily predictions for brighter satellites

Satellite Brightness Start Highest point End
(mag) Time Altitude Azimuth Time Altitude Azimuth Time Altitude Azimuth
BREEZE-M DEB (TANK) 4.4 16:26:20 10° WSW 16:38:57 56° NNW 16:43:32 10° NE
Cosmos 1844 Rocket 3.7 16:35:04 10° SSE 16:39:40 27° ESE 16:44:19 10° NE
MOS 1 4.5 16:35:04 10° SE 16:40:30 50° ENE 16:45:56 10° N
ASTEX 1 3.9 16:37:28 10° N 16:42:26 67° W 16:47:23 10° SSW
Abrixas 3.5 16:41:14 10° W 16:43:59 34° NNW 16:46:46 10° NE
OTV 4 2.2 16:45:01 10° WSW 16:47:39 28° S 16:50:18 10° ESE
Cosmos 1378 Rocket 3.5 16:43:26 10° S 16:47:41 68° E 16:51:59 10° NNE
Nadezhda 1 Rocket 4.4 16:45:42 10° SSW 16:51:42 65° W 16:57:49 10° N
GEOS 3 Rocket 4.2 16:47:13 10° ESE 16:51:50 35° NE 16:56:27 10° NNW
Cosmos 2341 Rocket 4.0 16:48:12 10° N 16:54:26 74° E 17:00:38 10° SSE
SL-27 R/B 3.8 16:51:46 10° N 16:54:38 21° ENE 16:57:29 10° ESE
Cosmos 1455 Rocket 4.1 16:54:10 10° NNE 16:57:44 23° ENE 17:01:17 10° SE
CORIOLIS 4.2 16:55:11 10° SSE 17:00:29 59° ENE 17:05:47 10° N
BREEZE-M DEB (TANK) 4.1 16:53:45 10° WNW 17:01:45 67° SW 17:05:29 10° SE
COSMOS 2406 3.2 16:56:26 10° NNW 17:02:08 66° ENE 17:07:50 10° SE
Cosmos 1048 Rocket 4.0 16:56:54 10° NNW 17:02:14 86° ENE 17:07:35 10° SSE
ISS -2.3 17:00:46 10° SSW 17:03:46 33° SE 17:06:08 14° ENE
Cosmos 2278 Rocket 3.5 17:01:02 10° SE 17:05:00 20° E 17:08:10 13° ENE
Cosmos 158 Rocket 4.0 17:00:17 10° NNW 17:05:39 65° ENE 17:10:53 10° SSE
SJ-7 4.5 17:01:51 10° SSE 17:06:00 61° ENE 17:10:12 10° N
CZ-4 R/B 4.5 17:08:48 10° SSE 17:12:51 57° ENE 17:16:57 10° N
Meteor 1-5 Rocket 4.1 17:07:35 10° N 17:12:59 72° E 17:18:29 10° SSE
SPOT 3 Rocket 3.6 17:11:50 10° SSE 17:17:02 86° WSW 17:22:15 10° NNW
CZ-2C R/B 2.5 17:12:11 10° SSE 17:17:07 89° WSW 17:22:14 10° NNW
Cosmos 1484 Rocket 3.2 17:17:20 10° SE 17:20:50 37° ENE 17:24:18 10° N
Cosmos 1238 Rocket 2.7 17:21:31 10° SSE 17:24:16 34° E 17:25:30 23° NE
MONITOR-E 4.3 17:22:32 10° SSE 17:25:39 53° ENE 17:28:47 10° N
ASTRO F (AKARI) 4.1 17:23:44 11° NNE 17:26:46 66° ESE 17:29:53 10° S
CRYOSAT 2 4.5 17:23:02 10° N 17:27:58 82° W 17:32:51 10° S
Cosmos 2082 Rocket 3.5 17:24:27 10° N 17:28:21 19° NE 17:28:55 18° NE
BREEZE M DEB (TANK) 4.0 17:19:41 10° SSW 17:28:33 32° SSE 17:30:50 19° E
IDEFIX/ARIANE 42P 2.9 17:25:56 10° S 17:31:06 69° WSW 17:36:19 10° NNW
COSMOS 2441 4.3 17:30:00 10° SSE 17:34:50 74° ENE 17:39:43 10° N
Cosmos 864 Rocket 4.5 17:28:56 10° N 17:35:10 64° E 17:41:25 10° SSE
USA 32 4.0 17:30:34 10° S 17:35:47 85° E 17:41:03 10° N
Cosmos 1833 Rocket 4.1 17:32:50 10° N 17:36:28 18° NE 17:36:28 18° NE
BREEZE M DEB (TANK) 3.5 17:35:59 10° NW 17:39:02 39° NNE 17:42:21 23° ENE
Okean 1 3.7 17:36:37 10° SSE 17:40:24 40° E 17:42:07 26° NE
COSMO-SKYMED 1 2.6 17:39:19 12° NNE 17:43:12 59° E 17:47:28 10° S
Meteor 1-18 Rocket 4.2 17:38:51 10° S 17:44:24 67° E 17:50:04 10° NNE
Cosmos 1544 Rocket 3.6 17:41:23 10° N 17:45:52 84° W 17:50:19 10° S
USA 234 4.0 17:42:38 15° NE 17:47:40 43° NNW 17:53:45 10° W
SL-24 DEB 4.2 17:44:20 10° N 17:49:07 75° E 17:53:49 10° S
Cosmos 1975 Rocket 4.3 17:45:21 10° SSW 17:49:25 40° WNW 17:53:30 10° N
MSX 4.1 17:44:22 10° S 17:50:06 73° WSW 17:55:53 10° NNW
Meteor 1-28 Rocket 3.5 17:54:50 43° ESE 17:54:50 43° ESE 17:58:22 10° S
Cosmos 2263 Rocket 4.4 17:53:09 10° W 17:57:06 19° NW 18:01:06 10° N
METEOR-M 4.4 17:52:40 10° SE 17:57:41 44° ENE 18:02:45 10° N
CZ-3B DEB 2.3 17:55:50 10° SW 17:59:43 85° SE 18:05:04 25° NE
CZ-4 R/B 4.1 17:56:46 10° SW 18:00:01 22° W 18:03:17 10° NW
NOAA 12 4.1 17:55:40 10° SSE 18:00:48 55° ENE 18:05:58 10° N
NOSS 3-3 (A) 4.2 17:56:24 10° SSW 18:02:21 52° ESE 18:04:55 34° ENE
NOSS 3-3 (C) 4.2 17:56:31 10° SSW 18:02:28 52° ESE 18:04:58 34° ENE
Cosmos 1346 Rocket 3.5 18:00:14 10° SSE 18:02:56 36° SE 18:02:56 36° SE
Cosmos 1536 Rocket 3.5 18:01:19 10° S 18:05:47 88° W 18:09:12 17° N
Cosmos 494 Rocket 3.9 18:01:15 10° NNW 18:06:31 88° WSW 18:11:46 10° SSE
Cosmos 1812 3.2 18:05:45 10° SSW 18:09:33 60° W 18:12:08 20° N
ATLAS 2AS CENTAUR R/B 3.1 18:02:32 10° NW 18:10:40 83° WSW 18:18:14 10° SSE
Meteor 1-12 Rocket 4.4 18:06:12 10° NNW 18:11:58 76° W 18:17:48 10° S
Cosmos 2251 Rocket 3.9 18:07:46 10° NNW 18:13:06 67° WSW 18:18:22 10° S
Meteor 2-21 Rocket 4.3 18:11:59 10° N 18:18:11 66° E 18:24:17 10° SSE
Cosmos 1975 3.1 18:15:33 10° NNW 18:19:38 68° W 18:23:38 10° S
Cosmos 1844 Rocket 3.6 18:17:57 10° SW 18:23:18 45° WNW 18:27:29 16° N
OTV 4 3.1 18:21:41 10° WSW 18:23:24 16° SSW 18:23:24 16° SSW
Meteor 2-16 Rocket 4.3 18:18:40 10° N 18:24:43 60° E 18:30:41 10° SSE
Timation 2 Rocket 4.2 18:19:49 10° NNW 18:26:31 57° ENE 18:28:08 47° ESE
Cosmos 1535 Rocket 4.5 18:21:55 10° N 18:28:10 56° ENE 18:34:17 10° SSE
Cosmos 1844 4.3 18:24:49 10° SW 18:30:13 52° WNW 18:33:29 23° N
Cosmos 2297 4.2 18:25:18 10° S 18:29:32 42° SE 18:29:32 42° SE
Meteor 1-19 Rocket 4.3 18:30:09 10° S 18:35:18 61° SE 18:35:18 61° SE
SL-8 R/B 4.1 18:35:05 10° SW 18:39:03 56° SSW 18:39:03 56° SSW
ISS -1.0 18:37:09 10° W 18:38:49 24° WNW 18:38:49 24° WNW
Cosmos 2239 Rocket 4.3 18:41:07 10° N 18:47:22 80° E 18:53:32 10° S
BREEZE-M R/B 3.6 18:38:34 10° WSW 18:47:31 84° NNW 18:47:38 83° N
Cosmos 2278 Rocket 2.6 18:42:57 10° SW 18:48:32 60° WNW 18:50:04 45° N
Meteor 1-13 Rocket 4.2 18:43:45 10° SSW 18:49:23 81° W 18:50:26 61° N
Cosmos 1821 Rocket 3.9 18:48:58 10° N 19:01:31 - S 18:54:31 74° N
Cosmos 2082 Rocket 3.2 19:07:26 10° NNW 19:10:50 38° NNW 19:10:50 38° NNW
Cosmos 1833 Rocket 4.2 19:15:39 10° NNW 19:18:13 28° NNW 19:18:13 28° NNW
FALCON 9 R/B 4.1 19:53:02 10° W 20:01:52 34° SW 20:01:52 34° SW
CZ-3B DEB 4.5 20:30:15 10° WNW 20:34:11 36° NW 20:34:11 36° NW
